Lid_Strength_Index
2 2 2 3 3 3 2 2 2 2 2 2 2 2 2 1 2 4 11 6 5 -1 -1 4 4 5 5 8 10 11 14 16 14 13 12 11 11 9 8 9 8 7 8 7 6
3 3 2 2 2 3 3 2 2 2 2 2 2 2 1 1 4 8 3 -0 -1 -2 5 6 6 6 10 11 10 13 16 15 12 12 12 11 11 10 9 10 9 8 7 6 6
3 3 3 2 2 2 2 2 2 2 2 2 2 2 1 2 7 7 -1 -2 -2 -1 4 4 5 7 11 11 10 13 14 12 10 10 10 10 10 9 10 11 10 9 8 7 7
3 3 3 2 2 2 2 2 2 2 2 2 2 1 1 5 13 6 -1 -2 -2 -0 4 5 8 10 12 12 10 13 10 10 10 10 10 11 9 9 10 9 8 7 8 8 7
4 3 3 3 2 2 2 2 2 2 2 2 2 1 5 8 9 5 -3 -2 2 3 5 6 9 11 12 11 10 12 10 9 9 9 9 9 9 10 10 8 7 7 7 7 7
4 4 4 3 2 2 2 2 2 2 2 2 1 1 5 10 5 5 4 4 4 6 8 8 8 9 11 11 12 10 9 9 9 9 9 9 8 10 7 7 7 7 7 7 7
4 4 3 3 3 2 2 3 3 3 2 2 1 2 4 7 5 5 5 6 5 5 6 6 6 8 9 10 9 8 11 10 9 9 9 9 11 10 7 6 7 6 7 6 6
4 4 3 3 3 2 2 3 3 2 2 1 1 4 6 5 5 5 6 6 5 5 5 4 5 8 9 9 8 10 12 15 10 9 9 10 13 8 7 8 7 7 6 5 6
4 4 4 3 3 3 3 3 3 2 1 1 4 5 8 3 5 4 5 5 5 5 5 3 6 8 9 11 13 13 15 15 13 10 10 11 11 9 6 7 7 8 7 6 6
4 4 4 4 3 3 3 3 3 3 3 2 3 9 7 7 5 4 4 4 6 6 6 7 9 11 12 13 16 16 16 15 14 11 11 12 11 9 7 7 8 7 7 7 7
4 4 4 4 3 3 5 6 8 8 8 8 7 7 7 6 5 6 4 5 7 8 12 10 12 14 13 11 11 12 13 13 12 10 11 11 11 9 7 8 8 7 6 7 6
4 4 4 4 4 4 7 7 7 7 10 6 5 5 5 6 8 6 5 8 9 11 10 12 14 11 9 9 10 11 12 13 12 9 10 10 11 8 8 9 8 8 7 7 6
4 4 4 4 4 6 7 5 5 6 10 7 6 5 6 6 8 7 6 8 10 11 11 13 11 8 9 10 10 12 13 13 13 10 10 10 12 10 7 8 8 7 6 6 5
4 4 4 4 6 6 6 5 6 6 12 8 8 6 7 7 9 5 5 7 10 11 11 12 9 9 10 11 10 13 10 10 10 12 15 11 16 11 10 9 8 7 6 6 5
4 4 4 5 8 7 6 6 5 6 18 8 8 6 7 9 8 7 6 8 11 11 11 11 10 10 11 10 9 12 9 10 11 13 14 13 16 14 10 11 9 8 7 6 5
4 4 4 5 6 6 5 6 5 12 18 10 8 9 10 9 8 7 7 7 8 10 10 10 8 9 10 8 8 8 10 11 13 15 18 15 16 15 13 11 9 8 7 6 5
5 5 6 5 7 5 6 7 12 16 8 11 11 10 11 11 9 8 9 11 12 14 14 11 10 8 7 10 9 10 14 19 19 20 19 13 15 14 11 9 9 9 7 6 5
5 5 6 5 6 5 7 10 16 10 11 8 9 10 11 9 9 9 10 12 9 11 14 16 16 9 8 10 12 12 13 18 21 20 17 13 17 14 9 8 7 7 7 6 5
6 5 5 4 4 6 9 14 13 10 9 10 10 12 11 9 10 10 11 11 9 10 14 15 14 9 8 8 9 11 14 12 15 15 18 15 13 11 9 9 8 8 7 7 6
8 5 4 3 5 7 11 12 10 8 8 9 13 10 13 11 11 12 12 8 8 8 10 12 16 10 8 8 9 10 10 16 15 21 22 18 16 16 13 11 9 8 8 7 6
6 7 4 5 6 9 13 11 9 7 8 9 11 12 12 12 11 12 11 9 7 8 9 11 13 12 10 11 12 12 14 13 14 16 20 21 18 12 12 10 10 9 7 6 6
9 9 4 6 11 11 11 9 8 8 7 8 9 10 11 11 12 12 11 9 6 7 10 10 13 15 12 9 8 10 12 13 17 18 16 17 17 8 9 8 9 8 7 6 5
11 8 4 6 13 13 11 9 8 9 9 9 10 9 10 12 14 11 10 7 6 8 10 10 14 17 15 13 10 11 11 11 12 14 17 19 16 8 7 7 8 8 7 6 5
9 11 10 9 10 12 12 11 10 7 7 8 9 9 11 12 11 12 10 8 6 7 6 8 14 14 17 14 12 14 12 11 13 17 16 15 13 10 9 9 8 7 7 6 6
9 12 11 14 13 12 12 10 10 10 8 9 10 10 11 14 12 11 10 9 7 6 8 10 15 13 12 11 11 12 12 12 14 13 16 13 13 12 10 9 9 7 7 7 7
11 12 11 12 11 12 11 11 11 10 10 10 11 9 10 12 12 12 11 11 11 9 11 11 14 13 14 11 11 13 11 11 11 11 11 12 14 9 8 7 8 8 8 8 8
9 9 11 12 12 13 13 10 9 10 9 8 9 10 10 9 8 8 8 8 9 10 11 14 16 16 17 13 13 16 13 12 12 11 11 15 12 9 9 8 8 9 8 8 8